Location: Arbon
(43.0005°N, 0.7472°E)
Time: 08:30:54
(UTC+00:00)

SR - Pass Details

Date: 01 December 2020
Orbit: 575 x 880 km, 66.7° (Epoch: 27 January)

Event Time Altitude Azimuth Distance (km) Brightness Sun altitude
Rises 16:11:40 0° 158° (SSE) 2,787 ? 1.0°
Reaches altitude 10° 16:15:09 10° 127° (SE) 1,926 ? 0.5°
Maximum altitude 16:16:49 12° 104° (ESE) 1,817 ? 0.2°
Drops below altitude 10° 16:18:31 10° 81° (E) 1,977 ? -0.1°
Enters shadow 16:21:59 - 52° (NE) 2,883 ? -0.6°
Sets 16:22:12 0° 51° (NE) 2,954 - -0.7°
